Weather History for Window Rock, AZ

Change the Weather History Date:

Saturday, May 11, 2013

  Actual Average Record
Temperature  
Mean Temperature 50 °F -  
Max Temperature 68 °F 69 °F 82 °F (1984)
Min Temperature 33 °F 38 °F 23 °F (2003)
Degree Days  
Heating Degree Days 14    
Moisture  
Dew Point 26 °F    
Average Humidity 45    
Maximum Humidity 89    
Minimum Humidity 15    
Precipitation  
Precipitation 0.00 in - - ()
Sea Level Pressure  
Sea Level Pressure 30.19 in    
Wind  
Wind Speed 4 mph (East)    
Max Wind Speed 10 mph    
Max Gust Speed 18 mph    
Visibility 10 miles    
Events      
Averages and records for this station are not official NWS values.
T = Trace of Precipitation, MM = Missing Value Source: NWS Daily Summary

Daily Weather History Graph

Daily Weather History Graph

Search for Another Location

Airport:

Trip Planner

Search our weather history database for the weather conditions in past years. The results will help you decide how hot, cold, wet, or windy it might be!

Date:

Astronomy

May. 11, 2013 Rise Set
Actual Time 6:14 AM MDT 8:11 PM MDT
Civil Twilight 5:46 AM MDT 8:39 PM MDT
Nautical Twilight 5:12 AM MDT 9:13 PM MDT
Astronomical Twilight 4:35 AM MDT 9:50 PM MDT
Moon 7:25 AM MDT (5/11) 9:53 PM MDT (5/11)
Length of Visible Light 14h 53m
Length of Day
13h 57m
Waxing Crescent, 3% of the Moon is Illuminated
May 11
Waxing Crescent
May 17
First Quarter
May 24
Full
May 31
Last Quarter
Jun 8
New

Hourly Weather History & Observations

Time (MDT) Temp. Windchill Dew Point Humidity Pressure Visibility Wind Dir Wind Speed Gust Speed Precip Events Conditions
12:53 AM 39.9 °F 37.8 °F 34.0 °F 79% 30.15 in 10.0 mi ENE 3.5 mph - N/A   Clear
1:53 AM 34.0 °F - 30.9 °F 89% 30.19 in 10.0 mi Calm Calm - N/A   Clear
2:53 AM 33.1 °F - 30.0 °F 89% 30.20 in 10.0 mi Calm Calm - N/A   Clear
3:53 AM 34.0 °F 31.0 °F 30.0 °F 85% 30.20 in 10.0 mi SW 3.5 mph - N/A   Clear
4:53 AM 33.1 °F 30.0 °F 30.0 °F 89% 30.20 in 10.0 mi SSW 3.5 mph - N/A   Partly Cloudy
5:53 AM 33.1 °F 30.0 °F 30.0 °F 89% 30.22 in 10.0 mi SW 3.5 mph - N/A   Clear
7:53 AM 39.9 °F - 32.0 °F 73% 30.24 in 10.0 mi Calm Calm - N/A   Clear
8:53 AM 52.0 °F - 37.0 °F 57% 30.23 in 10.0 mi Variable 5.8 mph - N/A   Clear
9:53 AM 55.9 °F - 35.1 °F 45% 30.22 in 10.0 mi East 4.6 mph - N/A   Clear
10:53 AM 59.0 °F - 32.0 °F 36% 30.21 in 10.0 mi Variable 6.9 mph - N/A   Clear
11:53 AM 62.1 °F - 30.0 °F 30% 30.21 in 10.0 mi ENE 9.2 mph - N/A   Scattered Clouds
12:53 PM 62.1 °F - 28.0 °F 28% 30.21 in 10.0 mi NNE 8.1 mph 18.4 mph N/A   Scattered Clouds
1:53 PM 62.1 °F - 27.0 °F 26% 30.22 in 10.0 mi ENE 6.9 mph - N/A   Mostly Cloudy
2:53 PM 68.0 °F - 24.1 °F 19% 30.18 in 10.0 mi East 8.1 mph - N/A   Scattered Clouds
3:53 PM 66.9 °F - 21.0 °F 17% 30.16 in 10.0 mi Variable 4.6 mph - N/A   Scattered Clouds
4:53 PM 64.9 °F - 19.0 °F 17% 30.17 in 10.0 mi Variable 5.8 mph - N/A   Mostly Cloudy
5:53 PM 68.0 °F - 18.0 °F 15% 30.14 in 10.0 mi NE 10.4 mph 17.3 mph N/A   Scattered Clouds
6:53 PM 66.0 °F - 17.1 °F 15% 30.15 in 10.0 mi ENE 8.1 mph - N/A   Scattered Clouds
7:53 PM 62.1 °F - 17.1 °F 18% 30.15 in 10.0 mi ENE 8.1 mph - N/A   Clear
8:53 PM 55.9 °F - 18.0 °F 23% 30.14 in 10.0 mi East 5.8 mph - N/A   Clear
9:53 PM 54.0 °F - 18.0 °F 24% 30.15 in 10.0 mi Calm Calm - N/A   Clear
10:53 PM 45.0 °F - 19.0 °F 36% 30.19 in 10.0 mi Calm Calm - N/A   Clear
11:53 PM 41.0 °F - 18.0 °F 40% 30.20 in 10.0 mi Calm Calm - N/A   Clear